Regional Weather Roundup
Issued by NWS

Home | Current Version | Previous Version | Text Only | Print | Product List | Glossary On
Versions: 1 2 3 4 5 6 7 8 9 10 11 12 13 14 15 16 17 18 19 20 21 22 23 24 25 26 27 28 29 30 31 32 33 34 35 36 37 38 39 40 41 42 43 44 45 46 47 48 49 50
000
ASUS43 KMKX 300120
RWRWI

WISCONSIN REGIONAL WEATHER ROUNDUP
NATIONAL WEATHER SERVICE MILWAUKEE/SULLIVAN WI
700 PM CST THU JAN 29 2015

NOTE: "FAIR" INDICATES FEW OR NO CLOUDS BELOW 12,000 FEET WITH NO
SIGNIFICANT WEATHER AND/OR OBSTRUCTIONS TO VISIBILITY.

WIZ001-002-006>008-014>016-023>028-300200-
NORTHWEST WISCONSIN

CITY           SKY/WX    TMP DP  RH WIND       PRES   REMARKS
SUPERIOR ARPT  FAIR      13   4  65 N10       30.47R WCI   0
ASHLAND        MOCLDY    18   6  59 NW18G24   30.39R WCI   2
HAYWARD        CLOUDY    16   5  62 N13G22    30.38R WCI   2
SIREN          PTCLDY    16   7  68 NW10G16   30.43R WCI   4
CUMBERLAND     CLOUDY    18   9  68 NW17G23   30.37R WCI   2
RICE LAKE      MOCLDY    19   8  63 NW12G18   30.38R WCI   7
CHETEK         CLOUDY    19   9  64 MISG      30.36R
LADYSMITH      CLOUDY    20  11  66 N17       30.33R WCI   6
EAU CLAIRE     CLOUDY    23  12  62 NW13G23   30.36R WCI  11
MENOMONIE      PTCLDY    22  11  62 NW15      30.38R WCI   9
NEW RICHMOND   CLOUDY    19  11  70 NW14G20   30.41R WCI   6
OSCEOLA        CLOUDY    19  10  69 NW13G20   30.47R WCI   6
$$

WIZ003>005-009-010-017-018-300200-
NORTH CENTRAL WISCONSIN

CITY           SKY/WX    TMP DP  RH WIND       PRES   REMARKS
MANITOWISH WTR FLURRIES  17  10  76 N13G21    30.25R WCI   3
ARBOR VITAE    FLURRIES  19  13  76 N15G23    30.23R WCI   5
WOODRUFF       FLURRIES  19  13  76 N15G23    30.23R WCI   5
RHINELANDER    CLOUDY    19  10  68 NW13G22   30.21R WCI   6
EAGLE RIVER    LGT SNOW  18  13  80 N13G22    30.20R VSB 1   WCI   4
LAND O LAKES   LGT SNOW  18  13  82 N10G22    30.22R WCI   6
PHILLIPS       CLOUDY    19  11  73 NW8G17    30.26R WCI   8
TOMAHAWK       LGT SNOW  19  15  83 NW10G16   30.24R WCI   8
MEDFORD        FLURRIES  21  13  72 NW17G23   30.25R WCI   6
MERRILL        FLURRIES  22  13  69 N12G17    30.24R WCI  11
$$

WIZ029-030-035-036-043>047-300200-
CENTRAL WISCONSIN

CITY           SKY/WX    TMP DP  RH WIND       PRES   REMARKS
WAUSAU         CLOUDY    24  12  60 N14G25    30.22R WCI  12
MOSINEE        CLOUDY    25  14  63 NW18G26   30.23R WCI  11
MARSHFIELD     CLOUDY    25  13  60 NW18      30.25R WCI  11
STEVENS POINT  CLOUDY    26  11  55 N13G23    30.23R WCI  14
WAUPACA        CLOUDY    31  14  50 NW14G21   30.22R WCI  20
WAUTOMA        CLOUDY    30  20  66 NW10      30.23R WCI  21
WISC RAPIDS    CLOUDY    27  15  61 NW15G24   30.26R WCI  15
CAMP DOUGLAS   CLOUDY    28  19  69 NW14      30.27R WCI  17
$$

WIZ011>013-019>022-031-037>040-048>050-300200-
NORTHEAST WISCONSIN

CITY           SKY/WX    TMP DP  RH WIND       PRES   REMARKS
ANTIGO         CLOUDY    19  12  73 N13       30.20R WCI   7
SHAWANO        CLOUDY    27  11  50 NW18G24   30.23R WCI  14
OCONTO         CLOUDY    25  13  59 MISG      30.21R
STURGEON BAY   MOCLDY    21  10  63 N18G24    30.22R WCI   6
GREEN BAY      LGT SNOW  27  17  66 N20G25    30.21R WCI  13
MANITOWOC      LGT SNOW  28  20  71 N17G30    30.18R WCI  16
APPLETON       CLOUDY    27  16  63 N20G35    30.19R WCI  13
CLINTONVILLE   CLOUDY    27  12  54 N15G23    30.23R WCI  15
OSHKOSH        FLURRIES  29  19  66 N15G24    30.19R WCI  18
$$

WIZ032>034-041-042-053>061-300200-
SOUTHWEST WISCONSIN

CITY           SKY/WX    TMP DP  RH WIND       PRES   REMARKS
LA CROSSE      CLOUDY    29  16  58 NW17G30   30.33R WCI  17
SPARTA         CLOUDY    28  16  60 NW13G23   30.31R WCI  18
VIROQUA        CLOUDY    26  18  70 NW21G29   30.28R WCI  12
BOSCOBEL       CLOUDY    32  20  61 NW10G21   30.30R WCI  24
PRAIRIE DU CHI CLOUDY    31  19  60 NW17G23   30.32R WCI  19
PLATTEVILLE    CLOUDY    32  24  71 W18       30.25R WCI  20
$$

WIZ056-057-062-063-064-067-068-300200-
SOUTH CENTRAL WISCONSIN

CITY           SKY/WX    TMP DP  RH WIND       PRES   REMARKS
REEDSBURG      CLOUDY    29  19  67 NW16G25   30.25R WCI  17
BARABOO/DELLS  CLOUDY    30  17  59 NW12G23   30.23R WCI  21
LONE ROCK      CLOUDY    32  19  58 NW16G24   30.27R WCI  21
MINERAL POINT  CLOUDY    32  21  64 NW18G26   30.23R WCI  20
MADISON        CLOUDY    32  19  58 NW10G18   30.21R WCI  24
MIDDLETON      CLOUDY    33  18  54 NW23G30   30.22R WCI  20
WATERTOWN      CLOUDY    32  19  59 NW14G23   30.18R WCI  22
MONROE         CLOUDY    32  23  69 NW15G22   30.21R WCI  22
JANESVILLE     CLOUDY    36  21  55 NW20G25   30.20R WCI  25
$$

WIZ051-052-058>065-066-070>072-300200-
SOUTHEAST WISCONSIN

CITY           SKY/WX    TMP DP  RH WIND       PRES   REMARKS
MILWAUKEE      CLOUDY    35  18  49 NW16G22   30.16R WCI  25
WAUKESHA       CLOUDY    32  19  59 NW15      30.16R WCI  22
MILWAUKEE/TIMM CLOUDY    34  18  51 N14       30.16R WCI  24
RACINE         CLOUDY    35  19  52 NW15G24   30.17R WCI  25
BURLINGTON     CLOUDY    32  19  59 NW15G25   30.18R WCI  22
KENOSHA        CLOUDY    34  21  59 NW12G23   30.16R WCI  25
FOND DU LAC    CLOUDY    30  18  60 N20G29    30.19R WCI  17
SHEBOYGAN      CLOUDY    30  18  60 N18G25    30.16R WCI  18
WEST BEND      CLOUDY    32  18  55 NW15G23   30.16R WCI  22
JUNEAU         CLOUDY    31  18  58 NW18G25   30.19R WCI  19
$$

LSZ147-162-300200-
LAKE SUPERIOR

STATION/POSITION TIME  TEMP    WIND        PRES    WAVE
                       AIR SEA DIR/SP/G            HT/PER
                 (UTC) (F)     (DEG/KT/KT) (MB)    (FT/S)
DEVILS ISLAND    0100   17     330/ 21/ 27 1030.8R
PORT WING        0020   20     310/ 24     1029.5R
SAXON HARBOR     0002   23     330/ 21/ 25 1026.4R
$$

LMZ867-665-643>646-300200-
LAKE MICHIGAN

STATION/POSITION TIME  TEMP    WIND        PRES    WAVE
                       AIR SEA DIR/SP/G            HT/PER
                 (UTC) (F)     (DEG/KT/KT) (MB)    (FT/S)
NORTHPORT PIER   0105   20     330/ 24     1022.7R
SISTER BAY       0043   20     350/ 23/ 29   N/A
KEWAUNEE LAKESHO 0000   29     340/ 17/ 25 1019.2R
SHEBOYGAN LAKESH 0100   31     340/ 21/ 26 1022.7R
PORT WASHINGTON  0040   34     340/  7/ 15 1021.7R
MILWAUKEE LAKESH 0100   35     340/ 15/ 20   N/A
KENOSHA   LAKESH 0100   35     320/ 14/ 19 1021.3R
$$

TC  - TEMPERATURE IN CELSIUS
VSB - VISIBILITY IN STATUTE MILES
WCI - WIND CHILL INDEX
HX  - HEAT INDEX



USA.gov is the U.S. government's official web portal to all federal, state and local government web resources and services.